Flag for Germany Past Weather in Pfaffenhofen an der Ilm, Bavaria, Germany — Yesterday and Last 2 Weeks

Now
16 °F

Ice fog.


Feels Like: 7 °F
Forecast: 10 / 22 °F
Wind: 6 mph from Northeast

Location: Ingolstadt Airport

Current Time: Jan 24, 2017 at 6:20:51 pm

Latest Report: Jan 24, 2017 at 5:20 pm


Visibility: 2 mi

Pressure: 30.36 "Hg

Humidity: 86%

Dew Point: 12 °F

Location of Pfaffenhofen an der IlmLocation

Past Weather in Pfaffenhofen an der Ilm — Graph

°F

Pfaffenhofen an der Ilm Temperature Yesterday

Maximum temperature yesterday: 16 °F (at 2:20 pm)
Minimum temperature yesterday: 5 °F (at 12:20 am)
Average temperature yesterday: 11 °F

High & Low Weather Summary for the Past Weeks

 TemperatureHumidityPressure
High41 °F (Jan 13, 3:20 am)100% (Jan 12, 9:20 pm)30.57 "Hg (Jan 12, 9:20 pm)
Low3 °F (Jan 22, 7:20 am)47% (Jan 20, 3:20 pm)29.36 "Hg (Jan 13, 3:20 am)
Average23 °F82%30.15 "Hg
* Reported Jan 9 4:20 pm — Jan 24 4:20 pm, Pfaffenhofen an der Ilm, Weather by CustomWeather, © 2017

Note: Actual official high and low records may vary slightly from our data, if they occured in-between our weather recording intervals... More about our weather records

Advertising

Pfaffenhofen an der Ilm Weather History for the Previous 24 Hours

Scroll right to see more
 ConditionsComfort  
Time TempWeatherWind HumidityBarometerVisibility
4:20 pm
Tue, Jan 24
16 °FLight snow. Ice fog.6 mph93%30.33 "Hg1 mi
3:20 pm16 °FLight snow. Ice fog.7 mph93%30.30 "Hg1 mi
2:20 pm16 °FIce fog.6 mph93%30.30 "Hg1 mi
1:20 pm16 °FIce fog.6 mph93%30.30 "Hg1 mi
12:42 pm16 °FIce fog.3 mph93%30.30 "Hg1 mi
11:20 am16 °FIce fog.2 mph86%30.30 "Hg1 mi
10:20 am14 °FIce fog.1 mph92%30.30 "Hg1 mi
9:20 am14 °FIce fog.1 mph85%30.30 "Hg1 mi
8:20 am14 °FIce fog.1 mph85%30.27 "Hg1 mi
7:20 am12 °FIce fog.1 mph92%30.27 "Hg1 mi
6:20 am12 °FIce fog.1 mph92%30.24 "Hg1 mi
5:20 am14 °FIce fog.2 mph85%30.24 "Hg1 mi
4:20 am14 °FCold.2 mph85%30.24 "Hg1 mi
3:20 am14 °FCold.2 mph85%30.24 "Hg1 mi
2:20 am14 °FCold.1 mph85%30.24 "Hg1 mi
1:20 am14 °FCold.No wind85%30.24 "Hg1 mi
12:20 am14 °FCold.1 mph85%30.24 "Hg0 mi
11:20 pm
Mon, Jan 23
12 °FIce fog.1 mph92%30.24 "Hg0 mi
11:12 pm12 °FIce fog.2 mph92%30.24 "Hg0 mi
10:29 pm12 °FIce fog.3 mph92%30.21 "Hg1 mi
9:20 pm14 °FIce fog.2 mph85%30.24 "Hg1 mi
8:20 pm14 °FCold.1 mph92%30.24 "Hg1 mi
7:20 pm14 °FCold.3 mph92%30.24 "Hg1 mi
6:20 pm14 °FIce fog.2 mph92%30.21 "Hg1 mi
Weather by CustomWeather, © 2017

See weather overviewHow to use our weather pages